Regional Weather Roundup
Issued by NWS State College, PA

Home | Current Version | Previous Version | Graphics & Text | Print | Product List | Glossary On
Versions: 1 2 3 4 5 6 7 8 9 10 11 12 13 14 15 16 17 18 19 20 21 22 23 24 25 26 27 28 29 30 31 32 33 34 35 36 37 38 39 40 41 42 43 44 45 46 47 48 49 50
000
ASUS41 KCTP 290203
RWRCTP

REGIONAL WEATHER ROUNDUP
NATIONAL WEATHER SERVICE STATE COLLEGE PA
1000 PM EDT THU MAY 28 2015

Note: "fair" indicates few or no clouds below 12,000 feet with no
significant weather and/or obstructions to visibility.

* = STATION THAT DOES NOT REPORT PRECIPITATION /E.G. RAIN...SNOW...ETC/
    THUNDER OR FOG.

PAZ002>004-007>009-013>016-020>023-029>032-290300-
WESTERN PENNSYLVANIA

CITY           SKY/WX    TMP DP  RH WIND       PRES   REMARKS
ERIE           CLEAR     65  54  67 CALM      30.25R
MEADVILLE      CLEAR     65  55  70 NE6       30.26R
FRANKLIN*      CLEAR     63  52  67 CALM      30.28R
NEW CASTLE     FAIR      66  58  75 CALM      30.25R
BEAVER COUNTY  NOT AVBL
BUTLER*        CLEAR     64  54  68 CALM      30.27R
PITTSBURGH INT CLEAR     72  52  49 E5        30.24R
PITTSBURGH     CLEAR     71  50  47 NE5       30.24R
INDIANA*       CLEAR     63  55  77 CALM      30.30R
LATROBE        PTCLDY    66  57  72 CALM      30.26R
WASHINGTON CO* CLEAR     61  57  88 CALM      30.25R
$$

PAZ004>006-010>012-017>019-024>028-033>037-041-042-045-046-049>053-290300-
CENTRAL PENNSYLVANIA

CITY           SKY/WX    TMP DP  RH WIND       PRES   REMARKS
BRADFORD       CLEAR     58  51  78 CALM      30.30R
DUBOIS         CLEAR     67  50  54 NE6       30.27R
CLEARFIELD     CLEAR     63  53  70 N7        30.27R
JOHNSTOWN      CLEAR     66  52  60 E5        30.29R
ALTOONA        CLEAR     68  53  58 CALM      30.28R
STATE COLLEGE  NOT AVBL
WILLIAMSPORT   CLEAR     67  57  70 CALM      30.25R
SELINSGROVE    CLEAR     70  53  54 NW3       30.25R
FT INDIANTOWN  NOT AVBL
CAPITAL CITY   MOCLDY    69  60  73 SW5       30.22R
HARRISBURG     MOCLDY    73  58  59 CALM      30.20R
YORK           MOCLDY    68  63  84 CALM      30.22R
$$

PAZ038>040-043-044-047-048-054-055-060>062-067>071-290300-
EASTERN PENNSYLVANIA

CITY           SKY/WX    TMP DP  RH WIND       PRES   REMARKS
SCRANTON       PTCLDY    69  53  56 NE6       30.28R
MOUNT POCONO   CLEAR     63  32  31 CALM      30.30R
ALLENTOWN      CLEAR     72  52  49 N5        30.23R
QUAKERTOWN*    PTCLDY    75  54  46 N6        30.23R
READING        PTCLDY    76  53  44 N9        30.21R
LANCASTER      MOCLDY    72  56  57 N8        30.21R
COATESVILLE    MOCLDY    73  59  60 N7        30.23R
POTTSTOWN      MOCLDY    74  53  48 NE7       30.23R
BLUE BELL      MOCLDY    77  57  50 CALM      30.21R
DOYLESTOWN     MOCLDY    73  51  46 N6        30.21R
WILLOW GROVE   NOT AVBL
NORTH PHILA    CLOUDY    80  52  37 NE12      30.21R
PHILADELPHIA   CLOUDY    77  69  76 S6        30.20R
$$



USA.gov is the U.S. government's official web portal to all federal, state and local government web resources and services.